Погода в Горине

Погода в Горине : погода сейчас, прогноз погоды и архив. Всё, что Вы хотите узнать о погоде в Горине!

Хотите узнать прогноз погоды в Горине? Тогда Вам сюда: Погода в Горине

Поиск расширенной информации на нашем сайте:

Другие новости

Новости СМИ2

Главная страница сайта

Новости сайта

03.07.2017

Напоминаем, что на нашем специализированном сайте Метеоцентр.Азия вы можете получить высокодетализированные автоматические прогнозы погоды по пунктам России, СНГ и мира в авиационном формате (включающие направление и скорость ветра, видимость, явления погоды, количество и форму облачности, нижнюю и верхнюю границу облачности).

Рекомендуем: обратите внимание у метро Октябрьская описание помещений на сайте

Погода в Горине - сегодня

Время (UTC), дата Ветер
(°,м/с) 
Видим.   Явления Облачность Т
(°С)
Тd
(°С)
f(%) Тe
(°С)
Pmin
(гПа)
dP
(гПа)
Po
(мм)
O2
(г/м3)
Тmin Tmax R s Состояние
почвы
00 15.06.18 320 (СЗ) 20000 м    10/0 средняя, верхняя 
[Ac lent|Cs]
+15.4 +8.1 62 +17  1016.6  -0.4  754  286           
03 15.06.18 110 (В) 20000 м    8/0 верхняя 
[Cc]
+21.3 +7.9 42 +21  1014.8  -1.5  753  280           
06 15.06.18 170 (Ю) 20000 м    9/4 600 м верхняя 
[Sc diur, vesp|Ci sp]
+22.4 +8.6 41 +22  1013.2  -1.5  752  279           
12 15.06.18 290 (З) 20000 м    10/10 1000 м 
[Sc]
+15.9 +11.3 74 +20  1013.6  0.7  752  284           
15 15.06.18 300 (СЗ) 20000 м    8/0 средняя 
[Ac trans]
+13.3 +11 86 +17  1013.8  0.1  752  287           
18 15.06.18 280 (З) 20000 м    10/0 средняя 
[Ac und]
+12.1 +10.5 90 +15  1013.6  -0.3  752  288           
00 16.06.18 080 (В) 20000 м    6/6 600 м 
[Sc diur, vesp]
+17.5 +10.8 65 +21  1012.2  -0.8  751  282           
03 16.06.18 090 (В) 20000 м    8/8 600 м 
[Sc diur, vesp]
+21.9 +11.7 52 +25  1010.1  -2  750  277           
06 16.06.18 180 (Ю) 20000 м    8/6 600 м кучево-дожд., средняя 
[Cb cap|Ac trans]
+22.9 +12 50 +27  1008  -2  748  276           
12 16.06.18 170 (Ю) 20000 м    10/3 1000 м средняя 
[Sc|As op]
+16.3 +11.1 71 +21  1006.5  -0.5  747  282           
15 16.06.18 170 (Ю) 20000 м    10/0 средняя 
[As op]
+14 +11.4 84 +18  1005.6  -1  746  284           
18 16.06.18 150 (ЮВ) 10 км  слаб. ливневой дождь  10/10 600 м кучево-дожд. 
[Cb cap]
+13.3 +11.9 91 +19  1003.8  -1.8  745  284           
21 16.06.18 110 (В) 10 км  слаб. ливневой дождь  10/10 600 м кучево-дожд. 
[Cb cap]
+13.7 +12.3 91 +20  1002.4  -1.3  744  283  +13.2      влажная 
00 17.06.18 130 (ЮВ) 20000 м  {ливн. осадки}  10/10 600 м 
[Sc diur, vesp]
+14 +12.1 88 +19  1001.2  -1.2  743  282           
12 17.06.18 140 (ЮВ) 20000 м    10/10 600 м 
[Sc]
+14.7 +12.5 87 +21  1000.8  1.3  743  281           
15 17.06.18 тихо ()   20000 м    8/8 600 м 
[Sc]
+11.9 +10.8 93 +14  1000.7  -0.2  742  285           
18 17.06.18 тихо ()   20000 м  слаб. ливневой дождь  10/10 600 м кучево-дожд. 
[Cb cap]
+12.2 +11.2 94 +15  1000.8  0.1  742  284           
21 17.06.18 тихо ()   10 км  слаб. ливневой дождь  10/10 600 м кучево-дожд. 
[Cb cap]
+13.7 +12.8 94 +19  1001.5  0.8  743  283  +11.5      влажная 
00 18.06.18 310 (СЗ) 20000 м  {ливн. осадки}  10/10 600 м 
[Sc]
+13 +11.1 88 +16  1002.7  1.1  744  284           
03 18.06.18 340 (С) 20000 м    10/10 1000 м 
[Sc]
+15.7 +11.7 77 +21  1002.5  0.1  744  281           
06 18.06.18 330 (СЗ) 10 км  слаб. ливневой дождь  9/9 600 м кучево-дожд. 
[Cb cap]
+14.7 +11.9 83 +19  1002.8  0.3  744  282           
12 18.06.18 360 (С) 20000 м  в посл. час ливневой дождь  10/10 600 м кучево-дожд. 
[Cb cap]
+12.1 +9.8 86 +14  1004.6  745  286           
15 18.06.18 320 (СЗ) 10 км  слаб. ливневой дождь  10/10 600 м кучево-дожд. 
[Cb cap]
+9.9 +8.6 92 +11  1004.1  -0.6  745  288           
18 18.06.18 320 (СЗ) 10 км  слаб. ливневой дождь  10/10 600 м кучево-дожд. 
[Cb cap]
+7.9 +7 94 +9  1002.3  -1.9  743  290           
21 18.06.18 300 (СЗ) 10 км  слаб. ливневой дождь  10/10 600 м кучево-дожд. 
[Cb cap]
+7 +6.1 94 +7  1000.1  -2.2  742  290  +7    17    влажная 
Время (UTC), дата Ветер
(°,м/с) 
Видим.   Явления Облачность Т
(°С)
Тd
(°С)
f(%) Тe
(°С)
Pmin
(гПа)
dP
(гПа)
Po
(мм)
O2
(г/м3)
Тmin Tmax R s Состояние
почвы

Для получения пояснительной информации подведите курсор к названию столбца.

ПОГОДА в Горине - архив

Всё, что Вы хотите узнать о погоде в Горине - удобно и подробно!

Выберите нужную дату (начиная с 1 января 2015* года) и нажмите кнопку "Найти".
Будут отображены архивные сводки погоды по пункту Горин, начиная с указанной даты.


Отображать данные в формате CSV (для использования в таблицах Excel)


Внимание! Наш архив погоды предназначен исключительно для личного некоммерческого использования в познавательных целях. Если Вам необходимы официальные справки о состоянии погоды (для производственных, юридических, коммерческих и т.п. целей), обращайтесь в органы Росгидромета.

*Примечание: данная дата относится к архиву по метеостанциям СССР (Россия, СНГ, Балтия).
Архив по метеостанциям Зарубежной Европы и Азии (кроме Китая) хранится 10 дней, по другим регионам земного шара (Китай, Африка, Америка, Австралия, Океания) - 1 день.

Горин - район местоположения метеостанции


Название, широта, долгота, высота метеостанции:
Горин 51.2°ш. 136.8°д. 92 м над ур. моря [Российская Федерация]

Дополнительная информация

В oтличие oт бoльшинства пoгoдных сайтoв мы публикуем пoдрoбную метеoинфoрмацию в детальнoм прoфессиoнальнoм фoрмате.

Характеристики температуры и влажнoсти вoздуха измеряются на высoте 2 м в тени вдали oт зданий и деревьев.
Скoрoсть ветра измеряется на высoте 10 м (на урoвне рoста челoвека скoрoсть ветра ниже в 1.5-2 раза). Если метеoстанция нахoдится в гoрoде или в лесу, тo скoрoсть ветра занижена на 2-4 м/с пo сравнению с oткрытым местoм. Скoрoсть ветра над акватoриями крупных рек и oзёр, а также на вершинах хoлмoв на 2-5 м/с выше, чем в oбычных услoвиях.
Атмoсфернoе давление в разных тoчках местнoсти мoжет значительнo oтличаться oт давления на метеoстанции, в зависимoсти oт услoвий рельефа (при пoдъёме на 10 м давление пoнижается примернo на 1 мм рт.ст.).